TimeCST,TemperatureF,Dew PointF,Humidity,Sea Level PressureIn,VisibilityMPH,Wind Direction,Wind SpeedMPH,Gust SpeedMPH,PrecipitationIn,Events,Conditions,WindDirDegrees,DateUTC
12:15 AM,-18.4,-23.8,76,30.23,2.0,Calm,Calm,-,N/A,,Haze,0,2014-01-08 06:15:00
12:35 AM,-18.4,-23.8,76,30.24,3.0,Calm,Calm,-,N/A,,Haze,0,2014-01-08 06:35:00
12:55 AM,-18.4,-23.8,76,30.24,1.0,Calm,Calm,-,N/A,,Haze,0,2014-01-08 06:55:00
1:15 AM,-18.4,-23.8,76,30.24,0.8,Calm,Calm,-,N/A,,Haze,0,2014-01-08 07:15:00
1:35 AM,-20.2,-25.6,76,30.24,0.5,Calm,Calm,-,N/A,,Haze,0,2014-01-08 07:35:00
1:55 AM,-20.2,-25.6,76,30.25,0.5,Calm,Calm,-,N/A,,Haze,0,2014-01-08 07:55:00
2:15 AM,-23.8,-27.4,83,30.26,0.5,South,3.5,-,N/A,Fog,Light Freezing Fog,180,2014-01-08 08:15:00
2:35 AM,-23.8,-27.4,83,30.26,1.2,South,3.5,-,N/A,,Haze,190,2014-01-08 08:35:00
2:55 AM,-23.8,-29.2,76,30.28,1.0,Calm,Calm,-,N/A,,Haze,0,2014-01-08 08:55:00
3:15 AM,-25.6,-32.8,69,30.29,10.0,Calm,Calm,-,N/A,,Mostly Cloudy,0,2014-01-08 09:15:00
3:35 AM,-25.6,-32.8,69,30.29,10.0,Calm,Calm,-,N/A,,Scattered Clouds,0,2014-01-08 09:35:00
3:55 AM,-25.6,-32.8,69,30.29,10.0,Calm,Calm,-,N/A,,Scattered Clouds,0,2014-01-08 09:55:00
4:15 AM,-27.4,-34.6,69,30.29,10.0,Calm,Calm,-,N/A,,Clear,0,2014-01-08 10:15:00
4:35 AM,-27.4,-34.6,69,30.29,10.0,Calm,Calm,-,N/A,,Clear,0,2014-01-08 10:35:00
4:55 AM,-25.6,-32.8,69,30.29,10.0,Calm,Calm,-,N/A,,Clear,0,2014-01-08 10:55:00
5:15 AM,-27.4,-32.8,75,30.29,10.0,Calm,Calm,-,N/A,,Clear,0,2014-01-08 11:15:00
5:35 AM,-29.2,-36.4,68,30.29,10.0,Calm,Calm,-,N/A,,Clear,0,2014-01-08 11:35:00
5:55 AM,-27.4,-34.6,69,30.29,10.0,Calm,Calm,-,N/A,,Clear,0,2014-01-08 11:55:00
6:15 AM,-27.4,-34.6,69,30.30,10.0,SSE,4.6,-,N/A,,Clear,160,2014-01-08 12:15:00
6:35 AM,-25.6,-32.8,69,30.30,10.0,South,4.6,-,N/A,,Clear,170,2014-01-08 12:35:00
6:55 AM,-27.4,-34.6,69,30.31,10.0,South,3.5,-,N/A,,Clear,170,2014-01-08 12:55:00
7:15 AM,-27.4,-32.8,75,30.32,10.0,Calm,Calm,-,N/A,,Clear,0,2014-01-08 13:15:00
7:35 AM,-27.4,-34.6,69,30.32,10.0,Calm,Calm,-,N/A,,Clear,0,2014-01-08 13:35:00
7:55 AM,-27.4,-34.6,69,30.32,10.0,Calm,Calm,-,N/A,,Clear,0,2014-01-08 13:55:00
8:15 AM,-29.2,-34.6,75,30.32,10.0,Calm,Calm,-,N/A,,Clear,0,2014-01-08 14:15:00
8:35 AM,-29.2,-36.4,68,30.34,10.0,Calm,Calm,-,N/A,,Clear,0,2014-01-08 14:35:00
8:55 AM,-27.4,-32.8,75,30.34,10.0,Calm,Calm,-,N/A,,Clear,0,2014-01-08 14:55:00
9:15 AM,-23.8,-29.2,76,30.35,10.0,South,4.6,-,N/A,,Clear,180,2014-01-08 15:15:00
9:35 AM,-23.8,-29.2,76,30.36,4.0,South,4.6,-,N/A,,Haze,180,2014-01-08 15:35:00
9:55 AM,-20.2,-25.6,76,30.37,10.0,South,4.6,-,N/A,,Clear,170,2014-01-08 15:55:00
10:15 AM,-16.6,-23.8,70,30.37,10.0,South,3.5,-,N/A,,Clear,190,2014-01-08 16:15:00
10:35 AM,-14.8,-20.2,77,30.37,10.0,SSW,3.5,-,N/A,,Clear,210,2014-01-08 16:35:00
10:55 AM,-14.8,-20.2,77,30.38,10.0,SSW,3.5,-,N/A,,Clear,200,2014-01-08 16:55:00
11:15 AM,-11.2,-18.4,70,30.37,10.0,South,3.5,-,N/A,,Clear,180,2014-01-08 17:15:00
11:35 AM,-11.2,-18.4,70,30.37,10.0,South,4.6,-,N/A,,Clear,180,2014-01-08 17:35:00
11:55 AM,-9.4,-18.4,65,30.36,10.0,SSW,5.8,-,N/A,,Clear,200,2014-01-08 17:55:00
12:16 PM,-9.4,-16.6,71,30.36,10.0,South,5.8,-,N/A,,Clear,190,2014-01-08 18:16:00
12:35 PM,-7.6,-14.8,71,30.36,10.0,SSW,5.8,-,N/A,Snow,Light Snow,200,2014-01-08 18:35:00
12:55 PM,-5.8,-16.6,60,30.35,10.0,SSW,5.8,-,N/A,Snow,Light Snow,200,2014-01-08 18:55:00
1:15 PM,-5.8,-14.8,65,30.35,10.0,SSW,5.8,-,N/A,,Clear,200,2014-01-08 19:15:00
1:35 PM,-4.0,-14.8,60,30.35,10.0,South,3.5,-,N/A,,Clear,190,2014-01-08 19:35:00
1:55 PM,-4.0,-14.8,60,30.35,10.0,SSW,4.6,-,N/A,,Clear,200,2014-01-08 19:55:00
2:15 PM,-4.0,-14.8,60,30.35,10.0,SSW,5.8,-,N/A,,Clear,200,2014-01-08 20:15:00
2:35 PM,-4.0,-14.8,60,30.35,10.0,SSW,6.9,-,N/A,,Clear,200,2014-01-08 20:35:00
2:55 PM,-4.0,-14.8,60,30.35,10.0,SSW,9.2,-,N/A,,Clear,200,2014-01-08 20:55:00
3:15 PM,-5.8,-14.8,65,30.35,10.0,SSW,6.9,-,N/A,,Clear,200,2014-01-08 21:15:00
3:35 PM,-5.8,-14.8,65,30.35,10.0,South,8.1,-,N/A,,Clear,190,2014-01-08 21:35:00
3:55 PM,-5.8,-14.8,65,30.36,10.0,South,6.9,-,N/A,,Clear,180,2014-01-08 21:55:00
4:15 PM,-7.6,-16.6,65,30.35,10.0,South,4.6,-,N/A,,Clear,170,2014-01-08 22:15:00
4:35 PM,-11.2,-18.4,70,30.35,10.0,South,5.8,-,N/A,,Clear,170,2014-01-08 22:35:00
4:55 PM,-11.2,-18.4,70,30.35,10.0,SSE,4.6,-,N/A,,Clear,160,2014-01-08 22:55:00
5:15 PM,-14.8,-18.4,84,30.34,10.0,South,4.6,-,N/A,,Clear,190,2014-01-08 23:15:00
5:35 PM,-14.8,-20.2,77,30.33,10.0,SSE,5.8,-,N/A,,Clear,160,2014-01-08 23:35:00
5:55 PM,-14.8,-18.4,84,30.33,10.0,SSE,4.6,-,N/A,,Clear,160,2014-01-08 23:55:00
6:15 PM,-14.8,-18.4,84,30.31,10.0,SSE,4.6,-,N/A,,Clear,150,2014-01-09 00:15:00
6:36 PM,-14.8,-20.2,77,30.31,10.0,SSE,5.8,-,N/A,,Clear,150,2014-01-09 00:36:00
6:55 PM,-14.8,-18.4,84,30.30,10.0,SSE,6.9,-,N/A,,Clear,160,2014-01-09 00:55:00
7:15 PM,-14.8,-18.4,84,30.29,10.0,SSE,5.8,-,N/A,,Clear,150,2014-01-09 01:15:00
7:36 PM,-14.8,-20.2,77,30.28,10.0,SSE,4.6,-,N/A,,Clear,150,2014-01-09 01:36:00
7:55 PM,-14.8,-18.4,84,30.27,10.0,SSE,6.9,-,N/A,,Clear,150,2014-01-09 01:55:00
8:15 PM,-11.2,-18.4,70,30.27,10.0,SSE,8.1,-,N/A,,Clear,160,2014-01-09 02:15:00
8:35 PM,-18.4,-23.8,76,30.27,10.0,South,6.9,-,N/A,,Clear,170,2014-01-09 02:35:00
8:55 PM,-16.6,-20.2,84,30.26,10.0,SSE,6.9,-,N/A,,Clear,160,2014-01-09 02:55:00
9:15 PM,-13.0,-16.6,84,30.25,10.0,SSE,6.9,-,N/A,,Clear,150,2014-01-09 03:15:00
9:35 PM,-14.8,-20.2,77,30.25,10.0,SSE,6.9,-,N/A,,Clear,160,2014-01-09 03:35:00
9:55 PM,-18.4,-23.8,76,30.24,10.0,South,9.2,-,N/A,,Clear,170,2014-01-09 03:55:00
10:15 PM,-14.8,-18.4,84,30.23,10.0,South,9.2,-,N/A,,Clear,170,2014-01-09 04:15:00
10:36 PM,-11.2,-16.6,77,30.21,10.0,South,11.5,-,N/A,,Mostly Cloudy,180,2014-01-09 04:36:00
10:55 PM,-7.6,-13.0,77,30.20,10.0,South,10.4,-,N/A,,Overcast,180,2014-01-09 04:55:00
11:15 PM,-5.8,-11.2,77,30.19,10.0,South,12.7,-,N/A,,Overcast,170,2014-01-09 05:15:00
11:35 PM,-5.8,-9.4,84,30.17,10.0,South,15.0,-,N/A,,Overcast,170,2014-01-09 05:35:00
11:55 PM,-2.2,-9.4,71,30.16,10.0,South,16.1,-,N/A,,Overcast,170,2014-01-09 05:55:00